[TLELIST] Archives

 

[TLELIST] Current TLEs

August 23rd 2024 PST

HST 1 20580U 90037B 24235.77571093 .00010346 00000-0 47338-3 0 9991 2 20580 28.4679 258.6666 0002434 57.4332 302.6496 15.18863546687164 ISS (ZARYA) 1 25544U 98067A 24236.40034515 -.00014822 00000-0 -25287-3 0 9995 2 25544 51.6393 342.3357 0006238 259.6285 187.0615 15.49903904468978 CXO 1 25867U 99040B 24239.26253145 .00000750 00000-0 00000+0 0 9999 2 25867 42.6738 147.8821 8822195 300.3953 0.5253 0.37809552 25987 ...Continue Reading

[TLELIST] Current TLEs

August 22nd 2024 PST

HST 1 20580U 90037B 24234.46155105 .00012126 00000-0 55667-3 0 9990 2 20580 28.4681 267.4873 0002366 42.6042 317.4734 15.18840535686962 ISS (ZARYA) 1 25544U 98067A 24235.16000531 .00028314 00000-0 49252-3 0 9995 2 25544 51.6402 348.4828 0004893 236.4095 123.6428 15.50549723468780 CXO 1 25867U 99040B 24236.61953662 .00000805 00000-0 00000+0 0 9997 2 25867 42.5803 148.1717 8823685 300.1910 0.7997 0.37807121 25979 ...Continue Reading

[TLELIST] Current TLEs

August 21st 2024 PST

HST 1 20580U 90037B 24233.47591758 .00011572 00000-0 53121-3 0 9995 2 20580 28.4681 274.1027 0002301 32.9353 327.1383 15.18817322686814 ISS (ZARYA) 1 25544U 98067A 24234.33892355 .00029655 00000-0 51607-3 0 9992 2 25544 51.6414 352.5483 0005315 226.6605 227.1975 15.50510042468659 CXO 1 25867U 99040B 24236.61953662 .00000805 00000-0 00000+0 0 9997 2 25867 42.5803 148.1717 8823685 300.1910 0.7997 0.37807121 25979 ...Continue Reading

[TLELIST] Current TLEs

August 21st 2024 PST

HST 1 20580U 90037B 24233.47591758 .00011572 00000-0 53121-3 0 9995 2 20580 28.4681 274.1027 0002301 32.9353 327.1383 15.18817322686814 ISS (ZARYA) 1 25544U 98067A 24234.33892355 .00029655 00000-0 51607-3 0 9992 2 25544 51.6414 352.5483 0005315 226.6605 227.1975 15.50510042468659 CXO 1 25867U 99040B 24236.61953662 .00000805 00000-0 00000+0 0 9997 2 25867 42.5803 148.1717 8823685 300.1910 0.7997 0.37807121 25979 ...Continue Reading

[TLELIST] Current TLEs

August 21st 2024 PST

HST 1 20580U 90037B 24233.47591758 .00011572 00000-0 53121-3 0 9995 2 20580 28.4681 274.1027 0002301 32.9353 327.1383 15.18817322686814 ISS (ZARYA) 1 25544U 98067A 24234.33892355 .00029655 00000-0 51607-3 0 9992 2 25544 51.6414 352.5483 0005315 226.6605 227.1975 15.50510042468659 CXO 1 25867U 99040B 24236.61953662 .00000805 00000-0 00000+0 0 9997 2 25867 42.5803 148.1717 8823685 300.1910 0.7997 0.37807121 25979 ...Continue Reading

[TLELIST] Current TLEs

August 20th 2024 PST

HST 1 20580U 90037B 24233.21307935 .00011295 00000-0 51837-3 0 9993 2 20580 28.4680 275.8667 0002292 30.1531 329.9194 15.18811782687037 ISS (ZARYA) 1 25544U 98067A 24233.37243774 .00027182 00000-0 47491-3 0 9999 2 25544 51.6409 357.3421 0005186 223.4237 232.2036 15.50447391468505 CXO 1 25867U 99040B 24233.97649026 .00000937 00000-0 00000-0 0 9996 2 25867 42.4946 148.4625 8822359 300.0007 0.9696 0.37803797 14803 ...Continue Reading

[TLELIST] Current TLEs

August 20th 2024 PST

HST 1 20580U 90037B 24233.21307935 .00011295 00000-0 51837-3 0 9993 2 20580 28.4680 275.8667 0002292 30.1531 329.9194 15.18811782687037 ISS (ZARYA) 1 25544U 98067A 24233.37243774 .00027182 00000-0 47491-3 0 9999 2 25544 51.6409 357.3421 0005186 223.4237 232.2036 15.50447391468505 CXO 1 25867U 99040B 24233.97649026 .00000937 00000-0 00000-0 0 9996 2 25867 42.4946 148.4625 8822359 300.0007 0.9696 0.37803797 14803 ...Continue Reading

[TLELIST] Current TLEs

August 19th 2024 PST

HST 1 20580U 90037B 24231.50460653 .00012942 00000-0 59583-3 0 9996 2 20580 28.4686 287.3327 0002176 11.3734 348.6908 15.18774127686515 ISS (ZARYA) 1 25544U 98067A 24232.40625104 .00024453 00000-0 42899-3 0 9998 2 25544 51.6412 2.1325 0005118 219.2686 240.0106 15.50392803468358 CXO 1 25867U 99040B 24233.97649026 .00000937 00000-0 00000-0 0 9996 2 25867 42.4946 148.4625 8822359 300.0007 0.9696 0.37803797 14803 ...Continue Reading

[TLELIST] Current TLEs

August 19th 2024 PST

HST 1 20580U 90037B 24231.50460653 .00012942 00000-0 59583-3 0 9996 2 20580 28.4686 287.3327 0002176 11.3734 348.6908 15.18774127686515 ISS (ZARYA) 1 25544U 98067A 24232.40625104 .00024453 00000-0 42899-3 0 9998 2 25544 51.6412 2.1325 0005118 219.2686 240.0106 15.50392803468358 CXO 1 25867U 99040B 24233.97649026 .00000937 00000-0 00000-0 0 9996 2 25867 42.4946 148.4625 8822359 300.0007 0.9696 0.37803797 14803 ...Continue Reading

[TLELIST] Current TLEs

August 19th 2024 PST

HST 1 20580U 90037B 24231.50460653 .00012942 00000-0 59583-3 0 9996 2 20580 28.4686 287.3327 0002176 11.3734 348.6908 15.18774127686515 ISS (ZARYA) 1 25544U 98067A 24232.40625104 .00024453 00000-0 42899-3 0 9998 2 25544 51.6412 2.1325 0005118 219.2686 240.0106 15.50392803468358 CXO 1 25867U 99040B 24233.97649026 .00000937 00000-0 00000-0 0 9996 2 25867 42.4946 148.4625 8822359 300.0007 0.9696 0.37803797 14803 ...Continue Reading
  • This mailing list is a public mailing list - anyone may join or leave, at any time.
  • This mailing list is announce-only.

International Space Station (ISS) / Hubble Space Telescope (HST) / Chandra X-Ray Observatory Orbital Data via EMAIL

Privacy Policy:

Private list